Погода в Всехсвятском

Россия / Кировская область     59°03′29″N   50°51′46″E
темп.,
°C
ветер,
м/с
пор.,
м/с
влажн.,
%
обл.,
%
осадки,
мм/ч
давл.,
гПа
погр.,
м
12 апреля, пн
пн1200:00+2з269852 0.0 1034110
03:000зюз119932 0.0 103610
06:00+1сз129215 0.0 103882
09:00+7зсз115662 0.0 1039461
12:00+10сз11405 0.0 1039929
15:00+10з11365 0.0 10391125
18:00+7ююз11575 0.0 103910
21:00+4ю23845 0.0 104050
13 апреля, вт
вт1300:00+2ю25895 0.0 103998
03:00+1ю2491100 0.0 103966
06:00+2ююв279086 0.0 1038173
09:00+8ю486898 0.0 1036448
12:00+10ю4865100 0.0 1034604
15:00+12ююз4870100 0.0 1032659
18:00+10ююз41186100 0.0 1031430
21:00+9ююз31294100 0.0 1030325
14 апреля, ср
ср1400:00+7ююз21096100 0.0 1029215
03:00+6ююз2896100 0.0 1029167
06:00+7ююз289397 0.0 1028201
09:00+12юз476572 0.0 1028403
12:00+16юз474865 0.0 1026941
15:00+17юз574273 0.0 10251360
18:00+13ююз395677 0.0 1024291
21:00+10ююз311729 0.0 1024209
15 апреля, чт
чт1500:00+8ююз3118087 0.0 1023218
03:00+6ююз3118279 0.0 1022212
06:00+6ююз3977100 0.0 1021206
09:00+12юз365467 0.0 1020457
12:00+16юз4541100 0.0 10191131
15:00+16зюз3541100 0.0 10171394
18:00+13зюз2361100 0.0 101645
21:00+7ссв4884100 0.0 1018373
16 апреля, пт
пт1600:00+6ссв4786100 0.0 1017518
03:00+3ссв4895100 0.0 1018587
06:00+2ссв41195100 0.3 1019620
09:00+2ссв41095100 2.3 1019619
12:00+4ссв5881100 1.1 1020969
15:00+6ссв5758100 1.5 10201526
18:00+2с61195100 0.9 1021739
21:000с6128968 1.1 1022554